www.pogodaiklimat.ru
ПОГОДА в Орленде
Время
(UTC), дата
13 9.10
14 9.10
15 9.10
16 9.10
17 9.10
18 9.10
19 9.10
20 9.10
21 9.10
22 9.10
23 9.10
00 10.10
01 10.10
02 10.10
03 10.10
04 10.10
05 10.10
06 10.10
07 10.10
08 10.10
09 10.10
10 10.10
11 10.10
12 10.10
13 10.10
14 10.10
15 10.10
16 10.10
17 10.10
18 10.10
19 10.10
20 10.10
21 10.10
22 10.10
23 10.10
00 11.10
01 11.10
02 11.10
03 11.10
04 11.10
05 11.10
06 11.10
07 11.10
08 11.10
09 11.10
10 11.10
11 11.10
12 11.10
13 11.10
14 11.10
15 11.10
16 11.10
17 11.10
18 11.10
19 11.10
20 11.10
21 11.10
22 11.10
23 11.10
00 12.10
01 12.10
02 12.10
03 12.10
04 12.10
05 12.10
06 12.10
07 12.10
08 12.10
09 12.10
10 12.10
11 12.10
12 12.10
13 12.10
14 12.10
15 12.10
16 12.10
17 12.10
18 12.10
19 12.10
20 12.10
21 12.10
22 12.10
23 12.10
00 13.10
01 13.10
02 13.10
03 13.10
04 13.10
05 13.10
06 13.10
07 13.10
08 13.10
09 13.10
10 13.10
11 13.10
12 13.10
13 13.10
14 13.10
15 13.10
16 13.10
17 13.10
18 13.10
19 13.10
20 13.10
21 13.10
22 13.10
23 13.10
00 14.10
01 14.10
02 14.10
03 14.10
04 14.10
05 14.10
06 14.10
07 14.10
08 14.10
09 14.10
10 14.10
11 14.10
12 14.10
13 14.10
14 14.10
15 14.10
16 14.10
17 14.10
18 14.10
19 14.10
20 14.10
21 14.10
22 14.10
23 14.10
00 15.10
01 15.10
02 15.10
03 15.10
04 15.10
05 15.10
06 15.10
07 15.10
08 15.10
09 15.10
10 15.10
11 15.10
12 15.10
13 15.10
14 15.10
15 15.10
16 15.10
17 15.10
18 15.10
19 15.10
20 15.10
21 15.10
22 15.10
23 15.10
00 16.10
01 16.10
02 16.10
03 16.10
04 16.10
05 16.10
06 16.10
07 16.10
08 16.10
09 16.10
10 16.10
11 16.10
12 16.10
13 16.10
Ветер
(напр.,м/с)
Видим. Явления Облачность Т
(С)
Тd
(С)
f
(%)
Тe
(С)
Тes
(С)
Комфортность P
(гПа)
Po
(гПа)
Тmin
(С)
Tmax
(С)
R
(мм)
R24
(мм)
S
(см)
ЮВ 7
{10}
>70 км 3/0
[Ac As Ci sp]
+10.7 +2.1 55 +8 +8 тепло 992.3 991.3
ЮВ 6
{9}
>70 км 3/0
[Ac As Ci sp]
+10.7 +2.3 56 +8 +8 тепло 992.5 991.5
В 5
{7}
>70 км 3/0
[Ac As Ci sp]
+9.3 +1.7 59 +6 +7 тепло 992.8 991.7
В 5
{7}
>70 км 3/0
[Ac As Ci sp]
+7.4 +2.1 69 +4 +4 по сезону 993.0 992.0
В 5
{7}
70 км 4/0
[Ac As Ci sp]
+6.7 +2.0 72 +3 +3 по сезону 993.2 992.1
В 5
{10}
70 км 4/0 2000 м
[Ac As Ci sp]
+7.3 +2.2 70 +4 +4 по сезону 993.3 992.3 +5.6 +11.0
В 5
{10}
70 км 4/0
[Ac As Ci sp]
+6.9 +1.8 70 +3 +3 по сезону 993.5 992.5
В 5
{7}
70 км 4/0
[Ac As Ci sp]
+6.0 +1.4 72 +2 +2 по сезону 993.8 992.7
В 5
{7}
70 км 4/0
[Ac As Ci sp]
+6.2 +1.6 72 +2 +2 по сезону 993.8 992.8
В 5
{7}
70 км 4/0
[Ac As Ci sp]
+6.0 +1.6 73 +2 +2 по сезону 993.7 992.6
В 5
{7}
70 км 3/0
[Ac As Ci sp]
+5.6 +1.4 74 +1 +1 по сезону 993.8 992.7
В 4
{10}
70 км 1/0 2000 м
[Ac As Ci fib]
+5.5 +1.3 74 +2 +2 по сезону 993.8 992.8
В 5
{7}
70 км 1/0
[Ac As Ci fib]
+5.6 +1.2 73 +1 +1 по сезону 993.8 992.8
В 5
{8}
70 км 1/0
[Ac As Ci fib]
+5.2 +1.2 75 +1 +1 по сезону 993.7 992.6
В 5
{7}
70 км 1/0
[Ac As Ci fib]
+5.1 +1.2 76 +1 +1 по сезону 993.6 992.6
ЮВ 6
{8}
70 км 3/0
[Ac As Ci sp]
+5.0 +2.0 81 -0 -0 по сезону 993.7 992.7
В 4
{9}
70 км 1/0
[Ac As]
+4.8 +1.3 78 +1 +1 по сезону 993.8 992.8
ЮВ 6
{9}
н/о н/о +4.5 +2.4 86 -1 -1 по сезону 993.9 992.9 +4.5 +7.3
ЮВ 6
{8}
70 км 1/0
[Ac As Ci fib]
+5.3 +2.5 82 0 0 по сезону 994.1 993.1
ЮВ 7
{9}
70 км 1/0
[Ac As Ci fib]
+5.8 +2.6 80 +1 +1 по сезону 994.2 993.2
ЮВ 7
{9}
70 км 1/0
[Ac As Ci fib]
+6.5 +3.0 78 +2 +2 по сезону 994.2 993.1
ЮВ 7
{9}
35 км 1/0
[Ac As Ci fib]
+7.4 +3.1 74 +3 +3 по сезону 994.2 993.2
ЮВ 7
{10}
35 км 1/0
[Ac As Ci fib]
+8.0 +3.3 72 +4 +4 по сезону 994.0 993.0
ЮВ 6
{10}
70 км 1/0
[Ac As Ci fib]
+8.8 +3.2 68 +5 +6 тепло 994.0 993.0
ЮВ 6
{8}
70 км 1/0
[Ac As Ci fib]
+9.0 +3.0 66 +5 +6 тепло 993.8 992.8
ЮВ 4
{6}
70 км 1/0
[Ac As Ci fib]
+9.4 +3.4 66 +7 +7 тепло 993.6 992.6
В 3
{5}
70 км 1/0
[Ac As Ci fib]
+8.7 +3.6 70 +6 +7 тепло 993.3 992.3
В 3
{4}
70 км 1/0
[Ac As Ci fib]
+7.3 +3.4 76 +5 +5 тепло 993.1 992.1
В 3
{4}
70 км 1/0
[Ac As Ci fib]
+6.7 +3.7 81 +4 +4 по сезону 993.0 991.9
В 4
{8}
70 км 1/0
[Ac As Ci fib]
+6.9 +4.4 84 +3 +3 по сезону 992.9 991.9 +4.4 +9.4
В 4
{6}
70 км 1/0
[Ac As Ci fib]
+6.6 +4.3 85 +3 +3 по сезону 992.8 991.8
В 4
{6}
70 км 1/0
[Ac As Ci sp]
+6.1 +4.3 88 +2 +2 по сезону 992.7 991.6
В 4
{6}
70 км 3/0
[Ac As Ci sp]
+5.7 +4.0 89 +2 +2 по сезону 992.8 991.7
ЮВ 4
{6}
60 км 3/1 1000 м
[Sc Ac As Ci sp]
+5.5 +4.0 90 +1 +1 по сезону 992.7 991.7
ЮВ 3
{5}
60 км 4/1 1000 м
[Sc Ac As Ci sp]
+5.1 +3.8 91 +2 +2 по сезону 992.9 991.9
В 3
{6}
60 км 8/1 1000 м
[Sc Ac As Ci sp]
+5.5 +4.2 91 +2 +2 по сезону 993.1 992.1
В 3
{4}
60 км 8/1 1000 м
[Sc Ac As Ci sp]
+5.3 +3.8 90 +2 +2 по сезону 993.4 992.3
ЮВ 2
{3}
60 км 9/6 600 м
[Sc Ac As Ci sp]
+5.9 +4.4 90 +3 +3 по сезону 993.6 992.5
В 3
{3}
60 км осадки на расстоянии 9/6 300 м
[Sc Ac As Ci sp]
+5.8 +4.5 91 +2 +2 по сезону 993.6 992.6
З 4
{5}
12 км слаб. дождь 10/10 100 м
[St]
+7.4 +6.8 96 +4 +4 по сезону 993.6 992.5
СВ 2
{4}
7000 м ливневой дождь 10/10 100 м
[Cu Sc]
+6.5 +5.9 96 +4 +4 по сезону 993.3 992.3
В 2
{5}
10 км слаб. ливневой дождь 10/10 100 м
[Cu Sc]
+6.5 +6.1 97 +4 +4 по сезону 993.3 992.2 +5.0 +7.4 2
ЮВ 2
{3}
20 км в посл. час ливневой дождь 10/9 100 м
[Cu Sc Ac As]
+6.6 +6.2 97 +4 +4 по сезону 993.0 991.9
З 3
{6}
4000 м ливневой дождь 10/10 50 м
[Cu Sc]
+8.0 +7.6 97 +5 +5 тепло 993.2 992.1
ЮЗ 2
{4}
25 км в посл. час ливневой дождь 9/5 100 м
[Cu Sc Ac As Ci sp]
+9.7 +7.8 88 +8 +8 тепло 993.0 992.0
ЮЗ 2
{3}
40 км 9/8 100 м
[Cu Sc Ac As Ci sp]
+9.6 +7.4 86 +8 +8 тепло 992.7 991.7
ЮЗ 1
{2}
50 км 9/5 100 м
[Cu Sc Ac As Ci sp]
+10.0 +7.4 84 +10 +10 тепло 992.3 991.3
В 3
{6}
50 км {ливн. осадки} 9/4 200 м
[Cu Sc Ac As Ci sp]
+9.9 +7.3 84 +8 +8 тепло 992.0 991.0 1
ЮВ 2
{4}
50 км 8/3 300 м
[Cu Sc Ac As Ci sp]
+10.8 +6.4 74 +10 +10 тепло 991.5 990.5
В 3
{4}
50 км 4/1 300 м
[Cu Sc Ac As Ci fib]
+10.3 +6.1 75 +8 +9 тепло 990.9 989.9
В 2
{4}
60 км 5/4 300 м
[Cu Sc Ac As Ci fib]
+8.4 +6.5 88 +6 +7 тепло 990.1 989.1
В 3
{3}
60 км 9/9 300 м
[Cu Sc]
+8.3 +7.1 92 +6 +6 тепло 989.7 988.7
В 2
{3}
60 км 9/9 300 м
[Cu Sc]
+8.0 +6.1 88 +6 +6 тепло 989.2 988.2
В 3
{4}
60 км 9/9 300 м
[Cu Sc]
+7.6 +5.7 88 +5 +5 тепло 988.7 987.7 +6.2 +11.2
В 3
{4}
50 км 9/9 300 м
[Sc]
+6.6 +4.8 88 +3 +3 по сезону 988.4 987.4
В 3
{5}
50 км 5/4 300 м
[Sc Ac As Ci fib]
+5.0 +3.5 90 +1 +1 по сезону 988.1 987.1
В 3
{4}
50 км 4/1 300 м
[St Ac As Ci fib]
+5.0 +3.2 88 +1 +1 по сезону 988.1 987.0
СВ 2
{4}
60 км 5/1 300 м
[Cu Sc Ac As Ci sp]
+4.1 +2.9 92 +1 +1 по сезону 988.0 986.9
В 2
{3}
60 км 5/1 300 м
[Cu Sc Ac As Ci fib]
+3.3 +2.4 94 0 0 по сезону 988.0 987.0
В 2
{5}
60 км 5/1 300 м
[Cu Sc Ac As Ci fib]
+3.1 +2.7 97 -0 -0 по сезону 988.1 987.1
В 3
{4}
60 км 5/1 300 м
[Cu Sc Ac As Ci fib]
+1.8 +1.4 97 -3 -3 прохладно 988.3 987.2
СВ 3
{4}
60 км 5/1 300 м
[St Ac As Ci fib]
+2.0 +1.6 97 -2 -2 по сезону 988.3 987.2
В 3
{3}
60 км 5/1 300 м
[St Ac As Ci fib]
+2.0 +1.4 96 -2 -2 по сезону 988.5 987.4
СВ 3
{3}
60 км 5/4 300 м
[Sc Ac As Ci fib]
+2.5 +2.1 97 -2 -2 по сезону 988.5 987.4
В 3
{3}
50 км 9/8 300 м
[Sc Ac As]
+2.8 +2.1 95 -1 -1 по сезону 988.5 987.5
В 2
{4}
40 км 9/9 300 м
[Sc]
+3.8 +3.1 95 +1 +1 по сезону 989.1 988.1 +1.3 +7.6
В 3
{3}
25 км 9/9 300 м
[Sc]
+4.5 +3.8 95 +1 +1 по сезону 989.6 988.5
В 2
{3}
15 км дождь {морось} 9/9 100 м
[Sc]
+5.5 +4.6 94 +3 +3 по сезону 990.0 989.0
С 1
{3}
8000 м слаб. морось {дождь} 10/9 100 м
[Sc]
+5.5 +4.8 95 +4 +4 по сезону 990.8 989.8
СВ 1
{2}
50 км в посл. час морось 9/9 100 м
[Sc]
+6.7 +5.5 92 +6 +6 тепло 991.2 990.1
ЮЗ 1
{2}
50 км 9/8 100 м
[Cu Sc Ac As Ci fib]
+7.5 +5.2 85 +7 +7 тепло 991.7 990.6
ЮЗ 3
{4}
60 км {дождь, морось} 9/8 300 м
[Cu Sc Ac As Ci fib]
+7.7 +5.2 84 +5 +5 тепло 992.2 991.2 0.5
С 5
{7}
40 км в посл. час ливневой дождь 9/8 300 м
[Cu Sc Ac cuf Ci fib]
+7.6 +4.2 79 +4 +4 по сезону 992.7 991.6
СЗ 5
{7}
50 км 9/6 300 м
[Cu Sc Ac cuf Ci fib]
+7.6 +2.9 72 +4 +4 по сезону 993.3 992.3
СЗ 4
{6}
60 км осадки на расстоянии {ливн. осадки} 9/5 300 м
[Cu Sc Ac cuf Ci fib]
+7.2 +1.1 65 +4 +4 по сезону 993.8 992.7
СЗ 3
{5}
60 км осадки на расстоянии 9/5 300 м
[Cu Sc Ac cuf Ci fib]
+6.5 +0.8 67 +4 +4 по сезону 994.4 993.3
З 3
{8}
60 км в посл. час ливневой дождь 9/9 300 м
[Cu Sc]
+6.8 +2.7 75 +4 +4 по сезону 995.0 994.0
З 6
{8}
60 км {ливн. осадки} 9/6 300 м
[Cu Sc Ac cuf]
+6.6 +2.3 74 +2 +2 по сезону 995.7 994.7 +3.5 +8.1 0.9
СЗ 5
{7}
60 км 9/8 300 м
[Cu Sc Ac cuf]
+7.0 +1.1 66 +3 +3 по сезону 996.5 995.5
СЗ 5
{8}
50 км слаб. ливневой дождь 9/8 300 м
[Cu Sc Ac As]
+6.5 +1.2 69 +3 +3 по сезону 997.2 996.1
СЗ 4
{8}
60 км в посл. час ливневой дождь 5/4 300 м
[Cu Sc Ac As]
+6.5 +0.2 64 +3 +3 по сезону 998.1 997.1
З 3
{6}
60 км 6/5 300 м
[Cu Sc Ac As]
+5.5 +0.7 71 +2 +2 по сезону 998.9 997.8
З 3
{6}
60 км слаб. ливневой дождь 8/8 300 м
[Cu Sc Ac As]
+5.5 +1.4 75 +2 +2 по сезону 999.5 998.4
З 4
{9}
50 км в посл. час ливневой дождь 8/5 300 м
[Cb cap Ac cuf]
+5.9 +2.7 80 +2 +2 по сезону 1000.1 999.0 0.0
З 8
{10}
50 км слаб. ливневой дождь 9/8 300 м
[Cb cap Ac cuf]
+5.9 +3.4 84 0 0 по сезону 1000.6 999.6
З 5
{9}
50 км в посл. час ливневой дождь 9/8 300 м
[Cb cap Ac cuf]
+5.5 +3.4 86 +1 +1 по сезону 1001.1 1000.0
ЮЗ 2
{8}
30 км в посл. час ливневой дождь 10/9 300 м
[Cb cap Ac cuf]
+4.9 +2.9 87 +2 +2 по сезону 1001.7 1000.6
ЮЗ 7
{11}
20 км слаб. ливневой дождь 10/9 300 м
[Cb cap Ac cuf]
+5.4 +3.7 89 -0 -0 по сезону 1001.9 1000.9
З 4
{8}
30 км в посл. час ливневой дождь 8/5 300 м
[Cb cap Ac cuf Ci sp]
+4.7 +2.6 86 0 0 по сезону 1002.6 1001.6
З 4
{11}
40 км в посл. час ливневой дождь 6/5 300 м
[Cb cap Ac cuf Ci sp]
+3.6 +1.5 86 -1 -1 по сезону 1003.1 1002.1 +3.6 +7.2 4
З 5
{10}
30 км слаб. ливневой дождь 9/8 300 м
[Cb cap Ac cuf]
+5.4 +3.6 88 +1 +1 по сезону 1003.9 1002.9
З 7
{9}
50 км в посл. час ливневой дождь 8/6 300 м
[Cb cap Ac cuf]
+6.3 +4.5 88 +1 +1 по сезону 1004.3 1003.2
З 6
{9}
30 км осадки на расстоянии 9/8 300 м
[Cb cap Ac cuf]
+6.6 +4.3 85 +2 +2 по сезону 1005.1 1004.1
ЮЗ 7
{9}
50 км в посл. час ливневой дождь 6/5 300 м
[Cb cap Ac cuf]
+6.5 +3.8 83 +2 +2 по сезону 1005.7 1004.6
З 5
{9}
50 км слаб. ливневой дождь 8/6 300 м
[Cb cap Ac cuf]
+7.8 +3.9 76 +4 +4 по сезону 1006.3 1005.2
З 6
{10}
60 км в посл. час ливневой дождь 6/5 300 м
[Cb cap Ac As]
+7.1 +3.4 77 +3 +3 по сезону 1006.8 1005.8 0.7
ЮЗ 4
{8}
60 км 4/3 300 м
[Cb cap Ac cuf]
+8.2 +3.3 71 +5 +6 тепло 1007.5 1006.4
З 4
{7}
60 км осадки на расстоянии 4/3 300 м
[Cb cap Ac cuf Ci sp]
+6.2 +3.2 81 +2 +3 по сезону 1007.8 1006.7
ЮЗ 2
{6}
60 км 3/3 300 м
[Cb cap Ac cuf Ci sp]
+7.4 +3.3 75 +5 +6 тепло 1007.6 1006.6
Ю 2
{3}
60 км осадки на расстоянии 3/3 300 м
[Cu Sc Ac cuf]
+5.0 +2.5 84 +2 +2 по сезону 1007.9 1006.9
В 4
{4}
60 км 3/3 600 м
[Cu Sc Ac cuf]
+3.1 +1.8 91 -2 -2 по сезону 1008.2 1007.2
В 3
{8}
65 км 3/3 600 м
[Cu Sc Ac cuf]
+2.6 +1.6 93 -2 -2 по сезону 1008.2 1007.2 +2.6 +8.8 0.7
В 4
{4}
65 км 3/3 600 м
[Cu Sc Ac cuf]
+2.5 +1.6 94 -3 -3 прохладно 1008.5 1007.4
СВ 3
{4}
65 км 1/1 600 м
[Cu Sc Ac cuf]
+1.5 +0.8 95 -3 -3 прохладно 1008.3 1007.2
В 4
{4}
60 км 1/1 600 м
[Cu Sc]
+1.4 +0.7 95 -4 -4 прохладно 1007.9 1006.9
СВ 3
{4}
65 км 1/1 300 м
[Cu Sc]
+1.3 +0.6 95 -3 -3 прохладно 1007.6 1006.5
В 3
{4}
60 км 1/1 300 м
[Cu Sc]
+2.3 +1.1 92 -2 -2 по сезону 1007.1 1006.0
В 3
{4}
60 км 3/3 300 м
[Cu Sc]
+1.3 +0.3 93 -3 -3 прохладно 1007.1 1006.1
СВ 3
{4}
60 км 3/3 300 м
[Cu Sc]
+1.4 +0.3 92 -3 -3 прохладно 1006.9 1005.8
В 3
{3}
60 км 1/1 300 м
[Cu Sc]
+2.0 +0.4 89 -2 -2 по сезону 1006.7 1005.6
В 3
{4}
60 км 1/1 300 м
[Cu Sc]
+1.3 0.0 91 -3 -3 прохладно 1006.6 1005.5
В 3
{5}
60 км 1/1 600 м
[Cu Sc]
+1.5 +0.1 90 -3 -3 прохладно 1006.5 1005.5
В 2
{5}
60 км 1/1 600 м
[Cu Sc]
+1.4 -0.2 89 -2 -2 по сезону 1006.7 1005.7
СВ 3
{5}
60 км 1/1 300 м
[St Ac As]
+0.8 -0.6 90 -4 -4 прохладно 1007.1 1006.0 +0.3 +3.1
В 3
{3}
60 км 1/1 300 м
[St Ac As]
+1.1 -0.5 89 -3 -3 прохладно 1007.5 1006.4
В 3
{4}
70 км 1/1 300 м
[St Ac As]
+2.3 +0.2 86 -2 -2 по сезону 1008.0 1007.0
ЮВ 1
{4}
70 км 1/1 300 м
[St Ac As]
+4.3 +1.5 82 +3 +4 по сезону 1008.7 1007.7
ЮВ 4
{6}
70 км 1/1 300 м
[Frnb Ac As]
+5.5 +2.2 79 +2 +2 по сезону 1009.3 1008.3
ЮВ 4
{6}
70 км 1/1 300 м
[Sc Ac As]
+6.1 +2.4 77 +2 +3 по сезону 1009.7 1008.7
ЮВ 3
{6}
70 км 1/1 600 м
[Sc Ac As]
+6.8 +1.5 69 +4 +5 по сезону 1010.2 1009.1
Ю 2
{4}
70 км 1/1 600 м
[Sc Ac As]
+7.2 +0.9 64 +5 +6 тепло 1010.7 1009.6
ЮЗ 1
{3}
70 км 1/1 600 м
[Sc Ac As]
+7.5 +1.8 67 +7 +8 тепло 1011.3 1010.2
З 1
{2}
70 км 1/1 600 м
[Sc Ac As]
+7.0 +1.7 69 +6 +7 тепло 1011.9 1010.9
СЗ 1
{2}
70 км 1/1 600 м
[Sc]
+5.4 +0.8 72 +4 +4 по сезону 1012.2 1011.2
ЮВ 2
{2}
60 км 1/1 600 м
[Sc]
+3.1 +1.2 87 0 0 по сезону 1012.9 1011.9
ЮВ 2
{4}
н/о н/о +2.5 +1.5 93 -1 -1 по сезону 1013.4 1012.3 0.0 +7.8
ЮВ 3
{3}
60 км 1/1 600 м
[Sc]
+3.1 +1.9 92 -1 -1 по сезону 1013.9 1012.8
ЮВ 3
{4}
60 км 1/1 600 м
[Sc Ac As]
+3.3 +2.3 93 -1 -1 по сезону 1014.1 1013.0
В 3
{3}
60 км 4/4 300 м
[Sc Ac As]
+2.7 +1.8 94 -2 -2 по сезону 1014.3 1013.3
В 3
{4}
60 км 1/1 300 м
[Cu Sc Ac As Ci fib]
+2.3 +1.4 94 -2 -2 по сезону 1014.5 1013.4
ЮВ 4
{5}
60 км 1/1 300 м
[Cu Sc Ac As Ci fib]
+3.1 +2.2 94 -2 -2 по сезону 1014.9 1013.8
В 4
{6}
60 км {ливн. осадки} 3/1 300 м
[Cu Sc Ac As Ci fib]
+2.7 +1.7 93 -2 -2 по сезону 1014.9 1013.9
В 5
{7}
60 км 9/0
[Ac As]
+3.2 +2.0 92 -2 -2 по сезону 1015.0 1014.0
В 5
{7}
60 км 9/0
[Ac As Ci fib]
+3.3 +1.8 90 -2 -2 по сезону 1015.2 1014.1
ЮВ 5
{8}
60 км 5/0
[Ac As Ci fib]
+2.8 +1.5 91 -3 -3 прохладно 1015.1 1014.0
ЮВ 6
{8}
60 км 5/0
[Ac As Ci sp]
+2.7 +1.4 91 -3 -3 прохладно 1014.8 1013.7
ЮВ 6
{9}
60 км 4/0
[Ac As Ci sp]
+2.8 +1.5 91 -3 -3 прохладно 1014.7 1013.6
В 6
{9}
60 км 4/1 600 м
[Sc Ac As Ci sp]
+2.7 +0.9 88 -3 -3 прохладно 1014.8 1013.7 +2.1 +3.5
ЮВ 8
{10}
60 км 4/1 600 м
[Sc Ac As Ci sp]
+3.0 +1.4 89 -4 -4 прохладно 1014.9 1013.9
ЮВ 8
{11}
60 км 4/1 600 м
[Sc Ac As Ci sp]
+3.8 +1.8 87 -3 -3 прохладно 1015.3 1014.3
ЮВ 9
{11}
60 км 3/1 300 м
[St Ac As Ci fib]
+4.4 +1.8 83 -2 -2 по сезону 1015.4 1014.3
ЮВ 7
{11}
60 км 3/1 300 м
[St Ac As Ci fib]
+5.2 +2.2 81 -0 0 по сезону 1014.8 1013.7
ЮВ 6
{9}
60 км 3/1 300 м
[St Ci fib]
+6.0 +2.5 78 +1 +2 по сезону 1014.8 1013.7
В 5
{11}
60 км смерч (торнадо) 3/1 300 м
[St Ci fib]
+6.9 +2.6 74 +3 +4 по сезону 1014.3 1013.3
ЮВ 4
{7}
60 км 1/1 300 м
[St Ci fib]
+7.5 +2.6 71 +4 +5 по сезону 1014.1 1013.1
В 4
{6}
60 км 1/0
[Ac As Ci fib]
+7.8 +2.1 67 +5 +5 тепло 1013.4 1012.4
В 4
{5}
60 км 3/0
[Ac As Ci fib]
+6.6 +1.5 70 +3 +3 по сезону 1013.2 1012.1
СВ 3
{4}
60 км 5/0
[Ac As Ci]
+4.4 +0.6 76 +1 +1 по сезону 1012.8 1011.8
В 3
{4}
60 км 6/0
[Ac As Cs]
+3.3 +0.2 80 -1 -1 по сезону 1012.6 1011.6
СВ 4
{7}
60 км 6/0 2000 м
[Ac As Cs]
+3.4 +0.1 79 -1 -1 по сезону 1012.4 1011.3 +2.6 +8.0
СЗ 1
{4}
65 км 5/0
[Ac As Ci fib]
+4.0 +0.9 80 +3 +3 по сезону 1012.2 1011.1
СВ 3
{4}
65 км 5/0
[Ac As Ci fib]
+3.2 +0.3 81 -1 -1 по сезону 1011.9 1010.8
СВ 5
{6}
65 км 4/0
[Ac As Ci fib]
+3.7 +0.9 82 -1 -1 по сезону 1011.7 1010.6
В 7
{8}
65 км 4/1 600 м
[Sc Ac As Ci fib]
+5.9 +1.8 75 +1 +1 по сезону 1011.3 1010.2
В 7
{9}
65 км 3/1 600 м
[Sc Ac As Ci fib]
+5.2 +1.5 77 -0 -0 по сезону 1010.8 1009.7
В 8
{11}
65 км 1/1 600 м
[Sc Ac As Ci fib]
+5.2 +1.7 78 -1 -1 по сезону 1010.2 1009.1
В 7
{11}
65 км 1/1 600 м
[Sc Ac As Ci fib]
+4.7 +1.4 79 -1 -1 по сезону 1009.9 1008.9
В 8
{10}
65 км 1/1 600 м
[Sc Ac As Ci fib]
+4.7 +1.2 78 -1 -1 по сезону 1009.3 1008.2
В 9
{11}
65 км 1/1 600 м
[Sc Ac As Ci fib]
+4.3 +1.0 79 -2 -2 по сезону 1008.9 1007.9
В 8
{11}
65 км 1/1 600 м
[Sc Ac As Ci fib]
+4.3 +1.3 81 -2 -2 по сезону 1008.8 1007.8
В 10
{13}
70 км 1/1 600 м
[Sc Ac As Ci fib]
+5.5 +1.6 76 -1 -1 по сезону 1008.3 1007.3
В 9
{13}
35 км 1/1 600 м
[Sc Ci fib]
+5.6 +1.5 75 -0 -0 по сезону 1007.9 1006.9 +2.9 +6.0
В 7
{12}
35 км 1/1 600 м
[Sc Ci fib]
+6.0 +1.7 74 +1 +1 по сезону 1008.1 1007.1
В 8
{11}
35 км 1/1 600 м
[Sc Ci fib]
+7.3 +2.2 70 +3 +3 по сезону 1007.8 1006.8
В 8
{12}
35 км 4/1 600 м
[Sc Ci fib]
+8.1 +2.4 67 +4 +4 по сезону 1007.6 1006.6
В 8
{12}
35 км 4/1 600 м
[Sc Ci sp]
+8.9 +2.7 65 +5 +5 тепло 1007.3 1006.3
В 9
{12}
35 км 5/1 600 м
[Sc Ci sp]
+9.9 +3.2 63 +6 +6 тепло 1006.9 1005.8
В 9
{13}
70 км 5/1 600 м
[Sc Ci sp]
+10.4 +3.2 61 +7 +7 тепло 1006.6 1005.6
В 9
{13}
35 км 6/1 1000 м
[Sc Ac As Ci sp]
+10.3 +3.4 62 +6 +7 тепло 1006.2 1005.2
Местоположение метеостанции Орленд (Норвегия): широта 63.70 долгота 9.61 высота над уровнем моря 10 м.
В архиве по умолчанию представлена погода в Орленде за последнюю неделю. Архивные данные за месяц целиком и за предыдущие месяцы, начиная с января 2011 года, Вы можете получить, выбрав интересующий диапазон дат из раскрывающегося списка и нажав кнопку "Найти!".
*Определитесь, кто Вы:
Внимание! Время в таблицах - всемирное. Для получения местного времени необходимо прибавить поправку, которая равна 1 ч.
Смотрите также архив погоды в соседних городах и на ближайших метеорологических станциях:
Партнеры нашего сайта:      
Пояснения к столбцам:
  • Ветер - указаны скорость ветра в м/с - средняя за 10 мин, порывы в срок и между сроками (в фигурных скобках) и направление, откуда дует ветер: С - северный,
  • СВ - северо-восточный, В - восточный, ЮВ - юго-восточный, Ю - южный, ЮЗ - юго-западный, З - западный, СЗ - северо-западный.
  • Видимость - горизонтальная дальность видимости в метрах или километрах. При видимости от 1 до 10 км при отсутствии осадков обычно наблюдается дымка, при ухудшении видимости до 1 км и менее - туман. В сухую погоду видимость может ухудшаться дымом, пылью или мглою.
  • Явления - указаны атмосферные явления, наблюдавшиеся в срок или в последний час перед сроком; фигурными скобками обозначены явления, наблюдавшиеся между сроками (за 1-3 часа до срока); квадратными скобками обозначены град или гололедные отложения с указанием их диаметра в мм.
  • Облачность - указаны через наклонную черту общая и нижняя облачность в баллах и высота нижней границы облаков в метрах; квадратными скобками обозначены формы облаков: Ci - перистые, Cs - перисто-слоистые, Cc - перисто-кучевые, Ac - высококучевые, As - высокослоистые, Sc - слоисто-кучевые, Ns - слоисто-дождевые, Cu - кучевые, Cb - кучево-дождевые. Подробнее классификацию облаков см. в Атласе облаков (PDF).
  • T - Температура воздуха - температура, измеренная на высоте 2 м над землей.
  • Td - Температура точки росы - температура, при понижении до которой содержащийся в воздухе водяной пар достигнет насыщения.
  • f - Относительная влажность воздуха - влажноcть воздуха, измеренная на высоте 2 м над землей.
  • Te - Эффективная температура - температура, которую ощущает одетый по сезону человек в тени. Характеристика душности погоды. При расчете учитывается влияние влажности воздуха и скорости ветра на теплоощущения человека.
  • Tes - Эффективная температура на солнце - температура, которую ощущает человек, с поправкой на солнечный нагрев. Характеристика знойности погоды. Зависит от высоты солнца над горизонтом, облачности и скорости ветра. Ночью, в пасмурную погоду, а также при ветре 12 м/с и более поправка равна нулю.
  • P - Атмосферное давление - приведенное к уровню моря атмосферное давление.
  • Po - Атмосферное давление - измеренное на уровне метеостанции атмосферное давление.
  • Tmin - Минимальная температура - минимум температуры воздуха на высоте 2 м над землей.
  • Tmax - Максимальная температура - максимум температуры воздуха на высоте 2 м над землей.
  • R - Количество осадков - Количество выпавших осадков за период времени, мм. При наведении курсора мыши на число - период времени, за который выпало указанное количество осадков.
  • R24 - Количество осадков - Количество выпавших осадков за 24 часа, мм.
  • S - Снежный покров - Высота снежного покрова, см. При наведении курсора мыши на число - состояние снежного покрова и степень покрытия местности в баллах.